Location: Kellogg
(38.0159°N, 90.0546°W)
Time: 00:45:01
(UTC+00:00)

Transit 2A - Pass Details

Date: 17 September 2024
Orbit: 590 x 960 km, 66.7° (Epoch: 09 October)

Event Time Altitude Azimuth Distance (km) Brightness Sun altitude
Rises 07:03:14 0° 345° (NNW) 3,641 10.0 -46.9°
Reaches altitude 10° 07:07:45 10° 14° (NNE) 2,657 9.3 -46.5°
Maximum altitude 07:10:11 12° 37° (NE) 2,462 9.1 -46.3°
Drops below altitude 10° 07:12:33 10° 60° (ENE) 2,590 9.2 -46.1°
Sets 07:16:48 0° 90° (E) 3,448 9.7 -45.7°
